Time,TemperatureF,DewpointF,PressureIn,WindDirection,WindDirectionDegrees,WindSpeedMPH,WindSpeedGustMPH,Humidity,HourlyPrecipIn,Conditions,Clouds,dailyrainin,SoftwareType,DateUTC
2013-08-02 00:33:00,77.0,74.0,29.96,SE,129,0.0,0.0,89,0.00,,,0.98,,2013-08-02 04:33:00,
2013-08-02 00:43:00,76.0,73.0,29.96,ENE,59,0.0,2.0,89,0.00,,,0.98,,2013-08-02 04:43:00,
2013-08-02 00:53:00,76.0,73.0,29.96,ESE,105,0.0,2.0,89,0.00,,,0.98,,2013-08-02 04:53:00,
2013-08-02 01:02:00,76.0,73.0,29.95,ESE,104,0.0,0.0,89,0.00,,,0.98,,2013-08-02 05:02:00,
2013-08-02 01:12:00,76.0,73.0,29.95,ESE,104,0.0,0.0,89,0.00,,,0.98,,2013-08-02 05:12:00,
2013-08-02 01:22:00,76.0,73.0,29.95,ESE,104,0.0,1.0,90,0.00,,,0.98,,2013-08-02 05:22:00,
2013-08-02 01:32:00,76.0,73.0,29.95,ESE,104,0.0,0.0,90,0.00,,,0.98,,2013-08-02 05:32:00,
2013-08-02 01:43:00,76.0,73.0,29.95,ESE,104,0.0,0.0,90,0.00,,,0.98,,2013-08-02 05:43:00,
2013-08-02 01:53:00,76.0,73.0,29.94,ESE,105,0.0,0.0,90,0.00,,,0.98,,2013-08-02 05:53:00,
2013-08-02 02:02:00,76.0,73.0,29.94,ESE,104,0.0,0.0,90,0.00,,,0.98,,2013-08-02 06:02:00,
2013-08-02 02:12:00,76.0,73.0,29.94,ESE,104,0.0,0.0,91,0.00,,,0.98,,2013-08-02 06:12:00,
2013-08-02 02:22:00,76.0,73.0,29.94,ESE,104,0.0,0.0,91,0.00,,,0.98,,2013-08-02 06:22:00,
2013-08-02 02:33:00,76.0,73.0,29.93,ESE,104,0.0,0.0,91,0.00,,,0.98,,2013-08-02 06:33:00,
2013-08-02 02:43:00,76.0,73.0,29.93,ESE,104,0.0,0.0,91,0.00,,,0.98,,2013-08-02 06:43:00,
2013-08-02 02:52:00,76.0,73.0,29.93,ESE,104,0.0,0.0,91,0.00,,,0.98,,2013-08-02 06:52:00,
2013-08-02 03:02:00,76.0,73.0,29.93,ESE,105,0.0,0.0,91,0.00,,,0.98,,2013-08-02 07:02:00,
2013-08-02 03:12:00,76.0,73.0,29.93,ESE,104,0.0,0.0,91,0.00,,,0.98,,2013-08-02 07:12:00,
2013-08-02 03:22:00,76.0,74.0,29.93,SE,140,0.0,2.0,92,0.00,,,0.98,,2013-08-02 07:22:00,
2013-08-02 03:33:00,76.0,74.0,29.93,SE,145,1.0,3.0,92,0.00,,,0.98,,2013-08-02 07:33:00,
2013-08-02 03:44:00,76.0,73.0,29.92,ESE,113,1.0,5.0,91,0.00,,,0.98,,2013-08-02 07:44:00,
2013-08-02 03:53:00,76.0,73.0,29.92,SE,129,0.0,2.0,91,0.00,,,0.98,,2013-08-02 07:53:00,
2013-08-02 04:02:00,76.0,73.0,29.92,ESE,106,0.0,3.0,91,0.00,,,0.98,,2013-08-02 08:02:00,
2013-08-02 04:12:00,76.0,73.0,29.92,East,87,0.0,3.0,91,0.00,,,0.98,,2013-08-02 08:12:00,
2013-08-02 04:22:00,76.0,74.0,29.92,SE,136,0.0,1.0,92,0.00,,,0.98,,2013-08-02 08:22:00,
2013-08-02 04:33:00,76.0,73.0,29.92,SE,125,0.0,1.0,91,0.00,,,0.98,,2013-08-02 08:33:00,
2013-08-02 04:43:00,76.0,73.0,29.92,East,101,0.0,0.0,91,0.00,,,0.98,,2013-08-02 08:43:00,
2013-08-02 04:54:00,76.0,73.0,29.91,ESE,104,0.0,2.0,91,0.00,,,0.98,,2013-08-02 08:54:00,
2013-08-02 05:02:00,76.0,74.0,29.92,ESE,113,0.0,0.0,92,0.00,,,0.98,,2013-08-02 09:02:00,
2013-08-02 05:12:00,76.0,74.0,29.92,ESE,113,0.0,2.0,92,0.00,,,0.98,,2013-08-02 09:12:00,
2013-08-02 05:23:00,76.0,74.0,29.92,ESE,113,0.0,0.0,92,0.00,,,0.98,,2013-08-02 09:23:00,
2013-08-02 05:33:00,76.0,74.0,29.92,ESE,113,0.0,0.0,92,0.00,,,0.98,,2013-08-02 09:33:00,
2013-08-02 05:53:00,76.0,74.0,29.92,ESE,113,0.0,0.0,92,0.00,,,0.98,,2013-08-02 09:53:00,
2013-08-02 06:03:00,76.0,74.0,29.93,ESE,113,0.0,2.0,92,0.00,,,0.98,,2013-08-02 10:03:00,
2013-08-02 06:12:00,76.0,74.0,29.93,ESE,113,0.0,2.0,93,0.00,,,0.98,,2013-08-02 10:12:00,
2013-08-02 06:43:00,75.0,73.0,29.93,ESE,111,0.0,0.0,92,0.00,,,0.98,,2013-08-02 10:43:00,
2013-08-02 06:52:00,75.0,73.0,29.93,ESE,111,0.0,0.0,92,0.00,,,0.98,,2013-08-02 10:52:00,
2013-08-02 07:02:00,75.0,73.0,29.93,ESE,111,0.0,0.0,92,0.00,,,0.98,,2013-08-02 11:02:00,
2013-08-02 07:32:00,75.0,73.0,29.94,SE,134,0.0,0.0,93,0.00,,,0.98,,2013-08-02 11:32:00,
2013-08-02 07:43:00,76.0,74.0,29.95,SE,134,0.0,0.0,93,0.00,,,0.98,,2013-08-02 11:43:00,
2013-08-02 07:52:00,76.0,74.0,29.95,SE,134,0.0,0.0,93,0.00,,,0.98,,2013-08-02 11:52:00,
2013-08-02 08:02:00,76.0,74.0,29.95,SE,134,0.0,1.0,93,0.00,,,0.98,,2013-08-02 12:02:00,
2013-08-02 08:33:00,77.0,74.0,29.94,SE,141,0.0,3.0,92,0.00,,,0.98,,2013-08-02 12:33:00,
2013-08-02 08:43:00,78.0,75.0,29.94,SE,132,2.0,5.0,90,0.00,,,0.98,,2013-08-02 12:43:00,
2013-08-02 08:52:00,79.0,75.0,29.95,South,170,1.0,6.0,89,0.00,,,0.98,,2013-08-02 12:52:00,
2013-08-02 09:03:00,80.0,76.0,29.95,SSE,163,1.0,5.0,87,0.00,,,0.98,,2013-08-02 13:03:00,
2013-08-02 09:12:00,80.0,75.0,29.96,SSE,157,2.0,5.0,86,0.00,,,0.98,,2013-08-02 13:12:00,
2013-08-02 09:33:00,82.0,75.0,29.96,SE,125,3.0,7.0,80,0.00,,,0.98,,2013-08-02 13:33:00,
2013-08-02 09:43:00,83.0,76.0,29.96,SE,133,1.0,3.0,79,0.00,,,0.98,,2013-08-02 13:43:00,
2013-08-02 09:52:00,83.0,76.0,29.96,ESE,103,1.0,5.0,79,0.00,,,0.98,,2013-08-02 13:52:00,
2013-08-02 10:02:00,84.0,75.0,29.96,SE,134,2.0,4.0,74,0.00,,,0.98,,2013-08-02 14:02:00,
2013-08-02 10:12:00,85.0,76.0,29.96,SSE,157,0.0,5.0,74,0.00,,,0.98,,2013-08-02 14:12:00,
2013-08-02 10:22:00,85.0,75.0,29.97,WSW,240,0.0,0.0,73,0.00,,,0.98,,2013-08-02 14:22:00,
2013-08-02 10:32:00,85.0,75.0,29.97,SE,137,1.0,4.0,73,0.00,,,0.98,,2013-08-02 14:32:00,
2013-08-02 10:43:00,85.0,76.0,29.98,WSW,248,0.0,3.0,75,0.00,,,0.98,,2013-08-02 14:43:00,
2013-08-02 10:53:00,86.0,76.0,29.98,South,174,0.0,3.0,73,0.00,,,0.98,,2013-08-02 14:53:00,
2013-08-02 11:03:00,87.0,76.0,29.99,NE,36,0.0,4.0,71,0.00,,,0.98,,2013-08-02 15:03:00,
2013-08-02 11:12:00,87.0,76.0,29.99,NE,35,0.0,1.0,71,0.00,,,0.98,,2013-08-02 15:12:00,
2013-08-02 11:22:00,88.0,78.0,29.99,NW,325,2.0,4.0,72,0.00,,,0.98,,2013-08-02 15:22:00,
2013-08-02 11:32:00,88.0,77.0,29.99,West,269,2.0,4.0,70,0.00,,,0.98,,2013-08-02 15:32:00,
2013-08-02 11:43:00,88.0,77.0,30.00,West,280,0.0,3.0,69,0.00,,,0.98,,2013-08-02 15:43:00,
2013-08-02 11:52:00,88.0,77.0,30.00,West,274,0.0,1.0,70,0.00,,,0.98,,2013-08-02 15:52:00,
2013-08-02 12:02:00,88.0,76.0,30.00,North,355,1.0,3.0,68,0.00,,,0.98,,2013-08-02 16:02:00,
2013-08-02 12:12:00,89.0,76.0,30.00,NW,325,1.0,4.0,66,0.00,,,0.98,,2013-08-02 16:12:00,
2013-08-02 12:32:00,89.0,78.0,30.01,NW,320,2.0,4.0,71,0.00,,,0.98,,2013-08-02 16:32:00,
2013-08-02 12:43:00,90.0,78.0,30.01,WSW,255,1.0,6.0,67,0.00,,,0.98,,2013-08-02 16:43:00,
2013-08-02 12:52:00,90.0,78.0,30.00,NNW,327,3.0,7.0,68,0.00,,,0.98,,2013-08-02 16:52:00,
2013-08-02 13:02:00,89.0,77.0,30.00,West,263,1.0,5.0,68,0.00,,,0.98,,2013-08-02 17:02:00,
2013-08-02 13:12:00,90.0,78.0,29.99,NW,309,1.0,6.0,67,0.00,,,0.98,,2013-08-02 17:12:00,
2013-08-02 13:22:00,90.0,77.0,29.99,West,271,4.0,6.0,65,0.00,,,0.98,,2013-08-02 17:22:00,
2013-08-02 13:52:00,90.0,78.0,29.99,NW,326,4.0,8.0,67,0.00,,,0.98,,2013-08-02 17:52:00,
2013-08-02 14:43:00,90.0,78.0,29.98,NW,304,3.0,9.0,68,0.00,,,0.98,,2013-08-02 18:43:00,
2013-08-02 14:52:00,90.0,79.0,29.98,WNW,302,5.0,11.0,70,0.00,,,0.98,,2013-08-02 18:52:00,
2013-08-02 15:32:00,90.0,78.0,29.96,West,281,4.0,8.0,68,0.00,,,0.98,,2013-08-02 19:32:00,
2013-08-02 15:43:00,90.0,78.0,29.96,WNW,292,4.0,7.0,69,0.00,,,0.98,,2013-08-02 19:43:00,
2013-08-02 15:52:00,90.0,78.0,29.96,West,267,3.0,9.0,67,0.00,,,0.98,,2013-08-02 19:52:00,
2013-08-02 16:02:00,90.0,78.0,29.95,WNW,288,4.0,8.0,67,0.00,,,0.98,,2013-08-02 20:02:00,
2013-08-02 16:43:00,88.0,79.0,29.95,West,266,1.0,7.0,74,0.00,,,0.98,,2013-08-02 20:43:00,
2013-08-02 16:52:00,88.0,78.0,29.94,NW,307,2.0,6.0,72,0.00,,,0.98,,2013-08-02 20:52:00,
2013-08-02 16:53:00,88.0,77.0,29.95,WNW,286,4.0,6.0,70,0.00,,,0.98,,2013-08-02 20:53:00,
2013-08-02 17:02:00,88.0,77.0,29.94,West,267,3.0,5.0,71,0.00,,,0.98,,2013-08-02 21:02:00,
2013-08-02 17:12:00,88.0,77.0,29.95,WNW,286,4.0,6.0,70,0.00,,,0.98,,2013-08-02 21:12:00,
2013-08-02 17:22:00,88.0,77.0,29.95,WNW,286,4.0,6.0,70,0.00,,,0.98,,2013-08-02 21:22:00,
2013-08-02 17:32:00,88.0,77.0,29.95,WNW,286,4.0,6.0,70,0.00,,,0.98,,2013-08-02 21:32:00,
2013-08-02 17:43:00,88.0,77.0,29.95,WNW,286,4.0,6.0,70,0.00,,,0.98,,2013-08-02 21:43:00,
2013-08-02 18:03:00,88.0,76.0,29.95,SW,228,3.0,6.0,68,0.00,,,0.98,,2013-08-02 22:03:00,
2013-08-02 18:12:00,88.0,77.0,29.94,South,178,3.0,6.0,69,0.00,,,0.01,,2013-08-02 22:12:00,
2013-08-02 18:52:00,89.0,77.0,29.94,NW,315,3.0,6.0,67,0.00,,,0.01,,2013-08-02 22:52:00,
2013-08-02 19:02:00,89.0,77.0,29.94,West,281,3.0,6.0,68,0.00,,,0.01,,2013-08-02 23:02:00,
2013-08-02 19:12:00,89.0,77.0,29.95,North,351,3.0,6.0,68,0.00,,,0.01,,2013-08-02 23:12:00,
2013-08-02 19:22:00,88.0,76.0,29.96,NNW,329,3.0,5.0,68,0.00,,,0.01,,2013-08-02 23:22:00,
2013-08-02 19:32:00,88.0,76.0,29.96,WNW,290,1.0,6.0,68,0.00,,,0.01,,2013-08-02 23:32:00,
2013-08-02 19:43:00,88.0,77.0,29.96,NW,306,1.0,5.0,70,0.00,,,0.01,,2013-08-02 23:43:00,
2013-08-02 19:53:00,87.0,76.0,29.96,WNW,298,2.0,5.0,69,0.00,,,0.01,,2013-08-02 23:53:00,
2013-08-02 20:02:00,87.0,76.0,29.96,NW,317,0.0,4.0,71,0.00,,,0.01,,2013-08-03 00:02:00,
2013-08-02 20:12:00,87.0,76.0,29.97,West,275,0.0,2.0,71,0.00,,,0.01,,2013-08-03 00:12:00,
2013-08-02 20:22:00,87.0,76.0,29.97,NW,320,2.0,4.0,71,0.00,,,0.01,,2013-08-03 00:22:00,
2013-08-02 20:33:00,87.0,76.0,29.97,NW,317,2.0,4.0,71,0.00,,,0.01,,2013-08-03 00:33:00,
2013-08-02 20:43:00,86.0,75.0,29.98,NW,320,3.0,5.0,71,0.00,,,0.01,,2013-08-03 00:43:00,
2013-08-02 20:52:00,86.0,76.0,29.98,NNW,333,1.0,4.0,72,0.00,,,0.01,,2013-08-03 00:52:00,
2013-08-02 21:03:00,86.0,76.0,29.99,NNW,331,1.0,4.0,73,0.00,,,0.01,,2013-08-03 01:03:00,
2013-08-02 21:12:00,86.0,77.0,30.00,NNW,346,0.0,4.0,74,0.00,,,0.01,,2013-08-03 01:12:00,
2013-08-02 21:22:00,85.0,76.0,30.00,NNW,333,1.0,4.0,75,0.00,,,0.01,,2013-08-03 01:22:00,
2013-08-02 21:32:00,85.0,76.0,30.00,NW,314,2.0,4.0,75,0.00,,,0.01,,2013-08-03 01:32:00,
2013-08-02 21:42:00,85.0,76.0,30.01,NW,315,1.0,4.0,75,0.00,,,0.01,,2013-08-03 01:42:00,
2013-08-02 21:53:00,85.0,77.0,30.01,NW,309,0.0,2.0,76,0.00,,,0.01,,2013-08-03 01:53:00,
2013-08-02 22:02:00,85.0,77.0,30.01,ENE,66,0.0,2.0,76,0.00,,,0.01,,2013-08-03 02:02:00,
2013-08-02 22:12:00,84.0,77.0,30.01,SE,142,0.0,2.0,80,0.00,,,0.01,,2013-08-03 02:12:00,
2013-08-02 22:22:00,84.0,77.0,30.01,SE,146,0.0,1.0,79,0.00,,,0.01,,2013-08-03 02:22:00,
2013-08-02 22:32:00,83.0,76.0,30.01,ESE,120,1.0,3.0,80,0.00,,,0.01,,2013-08-03 02:32:00,
2013-08-02 22:43:00,83.0,77.0,30.02,ESE,122,0.0,2.0,81,0.00,,,0.01,,2013-08-03 02:43:00,
2013-08-02 22:52:00,83.0,77.0,30.02,ENE,63,1.0,2.0,82,0.00,,,0.01,,2013-08-03 02:52:00,
2013-08-02 23:53:00,81.0,76.0,30.01,SSE,168,0.0,3.0,86,0.00,,,0.01,,2013-08-03 03:53:00,